Hourly Weather Roundup
Issued by NWS Central Illinois

Home | Current Version | Previous Version | Text Only | Print | Product List | Glossary On
Versions: 1 2 3 4 5 6 7 8 9 10 11 12 13 14 15 16 17 18 19 20 21 22 23 24 25 26 27 28 29 30 31 32 33 34 35 36 37 38 39 40 41 42 43 44 45 46 47 48 49 50
000
NZUS43 KILX 260410
HWRILX

AREA WEATHER ROUNDUP
NATIONAL WEATHER SERVICE, LINCOLN IL
1000 PM CST SUN JAN 25 2015


CITY           SKY/WX    TMP DP  RH WIND       PRES   REMARKS
BLOOMINGTON    CLOUDY    27  23  84 N15       29.97R WCI  15
CHAMPAIGN      CLOUDY    29  25  85 N17G23    29.92R WCI  17
DECATUR        CLOUDY    30  29  96 N14       29.95R WCI  19
FLORA          CLOUDY    32  28  86 N17G29    29.87R WCI  21
GALESBURG      PTCLDY    22  18  86 N10       30.04S WCI  11
JACKSONVILLE   PTCLDY    29  22  75 N10       30.02R WCI  20
LACON          CLEAR     23  16  75 N8        30.03R WCI  13
LAWRENCEVILLE  CLOUDY    31  28  89 N20       29.83R WCI  19
LITCHFIELD     CLOUDY    30  25  83 N17G25    29.96R WCI  18
$$


CITY           SKY/WX    TMP DP  RH WIND       PRES   REMARKS
LINCOLN        CLOUDY    30  24  80 N13       30.00R WCI  20
MACOMB         CLOUDY    26  21  82 N13       30.08R WCI  15
MATTOON        CLOUDY    29  25  85 N23G33    29.89R WCI  15
MT CARMEL AP   CLOUDY    34  30  86 N17       29.81R WCI  23
OLNEY-NOBLE AP CLOUDY    32  28  86 N15G26    29.86R WCI  22
PARIS          CLOUDY    29  26  88 NE12G24   29.89R WCI  19
PEORIA         CLEAR     25  17  72 N9        30.02R WCI  15
PONTIAC        CLOUDY    28  23  82 N12       29.99R WCI  18
RANTOUL        CLOUDY    30  25  82 N16G24    29.93R WCI  18
ROBINSON       CLOUDY    31  28  88 N16G23    29.85R WCI  19
SPRINGFIELD    CLOUDY    29  22  75 N14       30.00R WCI  18
TAYLORVILLE    CLOUDY    30  27  86 N21       29.96R WCI  17
$$

...REGIONAL REPORTS...


CITY           SKY/WX    TMP DP  RH WIND       PRES   REMARKS
CHICAGO O`HARE PTCLDY    24  15  68 NE12      29.98S WCI  13
KANKAKEE       CLOUDY    28  22  81 NE12      29.96S WCI  17
MOLINE         CLEAR     20  13  74 N5        30.06F WCI  13
MOUNT VERNON   CLOUDY    34  27  75 N12G23    29.88R WCI  25
PITTSFIELD     MOCLDY    29  23  78 N15       30.05R WCI  18
QUINCY         PTCLDY    26  20  77 N13       30.05R WCI  15
ROCKFORD       CLEAR     19  10  68 N13       30.04S WCI   6
$$


CITY           SKY/WX    TMP DP  RH WIND       PRES   REMARKS
BURLINGTON     CLOUDY    25  20  81 N12       30.06S WCI  14
CEDAR RAPIDS   CLOUDY    21  16  81 NE5       30.05F WCI  15
DES MOINES     CLOUDY    33  24  69 N7        30.08S WCI  27
KIRKSVILLE     CLOUDY    30  27  88 N8        30.08R WCI  22
OTTUMWA        CLOUDY    29  25  85 N3        30.07R
ST LOUIS       CLOUDY    32  26  78 N14       29.99R WCI  22
$$


CITY           SKY/WX    TMP DP  RH WIND       PRES   REMARKS
TERRE HAUTE    CLOUDY    28  23  81 N15G21    29.86R WCI  16
EVANSVILLE     CLOUDY    38  35  89 N20G29    29.78R FOG     WCI  28
INDIANAPOLIS   FLURRIES  21  18  88 NE18G31   29.82R WCI   6
LAFAYETTE      CLOUDY    25  21  85 NE9       29.91R WCI  15
MADISON        MOCLDY    18  11  74 NE6       30.04F WCI  10
MILWAUKEE      MOCLDY    25  12  58 NE13      30.02S WCI  14
$$




USA.gov is the U.S. government's official web portal to all federal, state and local government web resources and services.